CW8496 Weather Reports


time (UTC)temp
F
wind
direction
speed
knots
gust
knots
rain 1hr
in
rain 24hr
in
rain mn
in
humidity
%
barometer
mb
20260505063018 51 0.0 6.1 0.00 0.39 0.01 74 1028.0
20260505060017 51 270 0.9 5.2 0.00 0.41 0.01 75 1027.9
20260505053018 52 270 1.7 5.2 0.00 0.41 0.01 74 1028.1
20260505040019 57 293 0.9 4.3 0.00 0.41 0.01 64 1028.4
20260505033017 58 113 0.9 4.3 0.00 0.41 0.01 63 1028.5
20260505030017 57 293 1.7 5.2 0.00 0.41 0.01 65 1028.7
20260505023036 57 315 1.7 6.1 0.00 0.41 0.01 64 1029.0
20260505020017 56 270 1.7 6.1 0.00 0.41 0.01 72 1029.6
20260505013016 55 270 1.7 7.0 0.00 0.41 0.01 72 1030.0
20260505010019 53 270 1.7 7.0 0.00 0.42 0.01 76 1029.6
20260505003017 53 270 1.7 6.1 0.00 0.44 0.01 78 1029.6
20260505000017 52 270 1.7 6.1 0.00 0.46 0.01 80 1028.9
20260504233016 51 270 1.7 5.2 0.00 0.50 0.01 84 1028.7
20260504230017 50 270 1.7 7.8 0.00 0.54 0.01 85 1028.2
20260504223057 49 270 1.7 7.0 0.00 0.60 0.01 87 1027.8
20260504220038 47 270 0.9 6.1 0.00 0.65 0.01 91 1027.1
20260504213016 45 270 0.9 7.0 0.00 0.70 0.01 92 1026.7
20260504210016 44 270 0.9 11.3 0.00 0.75 0.01 91 1026.6
20260504203019 44 158 0.9 9.6 0.00 0.82 0.01 90 1026.4
20260504200039 44 248 0.9 6.1 0.00 0.90 0.01 89 1026.3
20260504193018 43 0.0 6.1 0.00 0.97 0.01 89 1025.9
20260504190018 44 0.0 6.1 0.00 1.03 0.01 88 1025.9
20260504183018 43 0.0 2.6 0.00 1.07 0.01 88 1026.0
20260504180018 44 0.0 5.2 0.00 1.11 0.01 88 1026.0
20260504173018 44 158 0.9 5.2 0.00 1.15 0.01 89 1025.9